TimeMST,TemperatureF,Dew PointF,Humidity,Sea Level PressureIn,VisibilityMPH,Wind Direction,Wind SpeedMPH,Gust SpeedMPH,PrecipitationIn,Events,Conditions,WindDirDegrees,DateUTC
12:53 AM,21.9,15.1,75,30.09,10.0,Calm,Calm,-,N/A,,Partly Cloudy,0,2012-11-19 07:53:00
1:53 AM,19.9,12.9,74,30.12,10.0,Calm,Calm,-,N/A,,Clear,0,2012-11-19 08:53:00
2:53 AM,17.1,10.9,77,30.15,10.0,Calm,Calm,-,N/A,,Clear,0,2012-11-19 09:53:00
3:53 AM,17.1,10.9,77,30.14,10.0,South,3.5,-,N/A,,Partly Cloudy,190,2012-11-19 10:53:00
4:53 AM,15.8,10.4,79,30.01,10.0,SW,4.6,-,N/A,,Clear,230,2012-11-19 11:53:00
5:53 AM,17.1,10.9,77,30.15,10.0,Calm,Calm,-,N/A,,Clear,0,2012-11-19 12:53:00
6:53 AM,18.0,10.9,74,30.17,10.0,Variable,4.6,-,N/A,,Clear,0,2012-11-19 13:53:00
7:53 AM,15.1,10.0,80,30.23,10.0,SE,6.9,-,N/A,,Clear,130,2012-11-19 14:53:00
8:53 AM,21.9,15.1,75,30.22,10.0,Calm,Calm,-,N/A,,Partly Cloudy,0,2012-11-19 15:53:00
9:53 AM,35.1,24.1,64,30.18,10.0,South,11.5,-,N/A,,Partly Cloudy,190,2012-11-19 16:53:00
10:53 AM,39.0,27.0,62,30.17,10.0,South,17.3,25.3,N/A,,Clear,170,2012-11-19 17:53:00
11:53 AM,39.9,26.1,58,30.14,10.0,WNW,3.5,-,N/A,,Clear,290,2012-11-19 18:53:00
12:53 PM,39.9,28.0,63,30.12,10.0,SSE,4.6,-,N/A,,Clear,150,2012-11-19 19:53:00
1:53 PM,42.1,28.0,58,30.11,10.0,South,15.0,-,N/A,,Clear,180,2012-11-19 20:53:00
2:53 PM,42.1,28.9,60,30.11,10.0,South,18.4,-,N/A,,Clear,180,2012-11-19 21:53:00
3:53 PM,41.0,28.0,60,30.11,10.0,South,17.3,26.5,N/A,,Clear,180,2012-11-19 22:53:00
4:53 PM,39.9,28.9,65,30.14,10.0,South,16.1,-,N/A,,Clear,180,2012-11-19 23:53:00
5:53 PM,39.9,28.9,65,30.11,10.0,South,23.0,28.8,N/A,,Clear,180,2012-11-20 00:53:00
6:53 PM,39.9,28.9,65,30.12,10.0,South,18.4,-,N/A,,Mostly Cloudy,170,2012-11-20 01:53:00
7:53 PM,41.0,28.9,62,30.11,10.0,South,21.9,-,N/A,,Clear,170,2012-11-20 02:53:00
8:53 PM,39.9,28.9,65,30.09,10.0,SSE,17.3,-,N/A,,Partly Cloudy,160,2012-11-20 03:53:00
9:53 PM,39.9,28.9,65,30.03,10.0,South,15.0,-,N/A,,Clear,180,2012-11-20 04:53:00
10:53 PM,39.9,28.9,65,30.00,10.0,South,19.6,-,N/A,,Mostly Cloudy,170,2012-11-20 05:53:00
11:53 PM,39.9,28.9,65,29.99,10.0,SSE,19.6,-,N/A,,Scattered Clouds,160,2012-11-20 06:53:00